GEFSSE_500_meanwind_162.txt.gz
Wind_Speed
8 8 7 7 7 7 7 8 9 9 10 11 11 12 12 12 12 12 12 12 11 10 10 9 8 8 7 7 7 6 6 5 5 4 4 3 4 4 3 3 3 3 3
9 9 9 8 8 8 8 9 9 10 11 11 12 12 13 13 13 13 13 12 12 11 11 10 9 9 8 8 8 7 7 6 6 5 5 4 4 4 4 4 3 3 3
10 10 9 10 10 9 9 9 10 11 11 11 12 12 13 13 13 13 13 13 13 12 12 11 11 10 10 9 9 9 8 8 7 6 6 6 5 5 5 4 4 4 4
11 10 10 11 10 10 10 10 11 12 12 12 12 13 13 13 13 13 13 13 13 13 12 12 12 11 11 11 10 10 10 10 9 8 7 7 6 6 6 6 5 5 5
11 11 11 12 11 11 12 12 12 12 13 13 13 14 14 14 14 14 14 14 14 13 13 13 13 13 12 12 11 11 11 11 10 9 9 8 7 7 7 6 7 7 6
13 13 13 13 13 13 13 13 13 13 13 14 14 14 14 15 15 15 15 15 15 14 14 14 14 14 13 13 13 12 12 12 11 11 11 10 9 8 8 7 7 8 8
14 14 14 14 14 14 14 14 15 15 15 15 15 15 15 16 16 16 16 16 15 15 15 15 15 15 15 14 14 14 13 13 13 12 12 12 11 10 9 9 9 9 9
15 16 16 16 15 15 15 15 16 16 16 16 16 16 16 16 16 16 16 16 16 16 15 16 16 16 16 15 15 15 14 14 14 13 13 13 12 12 11 10 11 10 10
16 17 17 17 16 16 16 16 17 17 17 17 17 17 17 17 17 17 17 17 17 16 16 16 16 17 17 17 16 16 15 15 15 15 15 14 13 12 12 12 12 11 11
16 18 17 17 17 17 17 17 18 18 18 18 18 18 17 17 18 18 17 18 18 18 17 17 18 18 18 18 18 17 17 16 16 16 16 15 15 14 14 13 12 11 12
17 17 18 18 18 19 19 19 19 19 19 19 19 19 19 18 18 19 19 19 19 19 19 19 19 19 19 19 19 19 18 18 18 17 17 17 16 16 16 15 13 13 13
17 17 18 19 20 20 20 20 20 20 20 20 20 20 20 20 20 20 20 20 20 20 21 20 20 20 20 20 20 20 20 20 19 19 19 19 18 17 16 16 15 15 15
18 18 18 20 21 21 21 21 21 21 21 20 20 20 20 20 20 21 22 22 21 21 21 21 22 22 21 21 21 21 21 21 20 20 20 20 19 19 18 18 17 17 16
20 20 20 20 21 21 22 21 21 22 22 21 21 20 20 21 21 22 22 22 22 22 22 22 22 22 22 22 22 22 21 21 21 20 20 20 20 20 20 20 19 18 18
22 22 22 23 22 22 22 22 22 22 22 22 22 22 22 21 22 22 23 23 22 23 23 22 22 22 23 23 22 22 22 22 22 22 21 20 20 19 20 20 20 20 20
24 24 24 24 22 23 23 23 23 23 23 23 22 22 22 23 23 22 24 23 23 23 23 23 23 22 23 23 22 23 23 23 23 22 22 22 21 21 20 21 21 21 22
25 25 25 25 24 24 24 23 23 24 24 24 24 23 24 23 23 23 24 24 24 24 24 23 23 23 23 23 23 23 23 23 22 22 22 23 22 22 22 22 22 23 22
25 26 26 26 26 25 25 25 24 24 24 24 24 24 24 24 24 24 24 25 26 25 24 24 24 24 24 24 24 24 24 24 24 24 24 24 24 24 24 23 23 24 23
26 27 28 27 25 27 27 26 26 26 26 25 25 25 25 25 25 25 25 25 25 24 25 25 25 24 24 24 25 25 25 25 26 25 25 26 26 25 25 25 25 24 24
27 28 28 28 27 27 27 27 27 27 27 26 25 25 25 25 25 26 26 26 25 25 25 25 25 25 25 25 26 25 25 25 26 25 25 25 25 26 26 26 26 25 24
27 28 29 30 29 29 30 29 29 29 28 27 26 26 26 25 25 25 25 25 26 26 26 25 25 25 25 26 26 26 26 26 25 25 25 25 25 25 26 26 27 26 25
28 29 29 30 30 30 30 30 29 29 28 27 27 27 27 26 26 25 24 25 25 25 25 26 26 26 26 26 26 26 26 26 26 25 26 26 26 25 25 26 26 26 26
27 28 29 29 30 30 30 28 28 28 28 28 28 28 28 27 27 26 26 26 26 25 26 26 26 26 26 26 26 26 26 26 27 27 27 27 26 25 25 25 25 25 26
27 28 28 28 28 29 29 29 28 28 28 27 28 27 27 27 26 26 25 25 26 26 25 25 26 26 26 26 26 27 26 26 26 26 27 27 26 25 24 24 24 24 25
28 28 28 27 26 26 27 27 28 28 28 27 27 26 27 26 25 25 24 24 24 24 24 25 25 25 25 26 26 26 26 26 27 26 26 27 26 26 26 25 25 25 25
29 29 28 27 26 26 26 26 27 27 27 27 26 26 27 25 24 22 22 22 23 23 24 24 25 24 24 25 26 26 27 27 27 26 25 26 27 27 27 26 26 26 26

GEFSSE_500_meanwind_168.txt.gz
Wind_Speed
9 10 10 10 10 9 9 9 10 9 9 9 9 9 10 10 10 10 11 11 12 12 12 11 11 10 10 10 9 9 9 9 8 8 7 6 6 5 5 5 5 5 5
10 11 11 11 10 11 11 10 10 10 10 10 10 10 10 11 11 11 12 12 12 12 12 12 12 11 11 10 10 10 10 10 9 9 8 8 7 6 6 6 6 6 6
12 12 13 12 12 12 12 11 11 11 11 11 11 11 11 11 11 12 12 12 13 13 13 13 13 12 12 11 11 11 10 10 10 9 9 8 8 8 7 7 7 7 6
13 13 14 13 13 13 13 12 12 12 12 12 12 12 12 12 12 13 13 13 13 14 14 14 14 13 13 12 12 11 11 11 10 10 10 9 9 8 8 8 8 8 7
14 14 15 15 14 14 14 13 13 13 13 13 13 13 13 13 13 13 13 14 14 14 15 14 14 14 14 13 13 12 12 12 11 11 10 10 9 9 9 9 9 9 8
16 16 16 16 15 15 15 14 14 14 14 14 14 14 14 14 14 14 14 15 15 15 15 15 15 15 15 14 14 13 13 13 12 12 11 11 11 10 10 10 10 9 9
18 18 17 17 16 15 15 15 15 15 15 15 15 15 15 15 15 15 15 15 15 16 16 16 16 16 16 16 15 15 14 14 14 13 13 12 12 12 11 11 11 11 11
19 18 18 18 17 16 16 16 16 16 16 16 16 16 16 17 17 16 17 17 17 17 17 17 17 17 17 17 17 16 16 16 16 15 14 13 13 13 12 12 12 11 12
19 19 18 19 19 18 17 17 17 17 17 17 17 17 18 18 18 17 18 18 18 18 18 18 18 18 18 17 17 17 17 17 17 17 16 15 14 14 13 12 13 13 13
20 19 19 19 19 18 18 18 18 18 18 18 18 18 18 19 19 19 19 20 19 18 19 19 19 19 19 18 18 18 18 18 18 17 17 16 16 15 15 14 14 14 14
21 19 19 19 19 19 19 19 19 19 19 19 19 20 19 20 20 20 21 21 21 20 20 20 21 21 20 20 19 19 19 19 19 19 18 18 17 17 16 16 16 15 15
20 19 19 20 19 19 19 19 20 20 21 21 21 21 21 21 22 22 22 22 22 22 22 22 22 22 22 21 21 20 20 20 20 20 19 19 18 18 18 17 17 17 17
20 20 20 20 20 20 20 20 20 21 22 22 22 22 22 22 22 23 23 23 23 23 23 23 23 23 22 22 21 21 21 21 21 21 21 20 20 19 19 19 19 18 19
21 21 21 21 21 21 21 21 21 22 22 24 24 24 24 24 23 23 24 24 24 24 24 24 24 24 23 23 23 23 22 22 22 22 22 22 22 20 20 20 20 20 20
22 22 22 22 22 22 22 22 23 23 24 25 25 25 25 25 24 24 24 24 24 25 25 25 25 25 25 25 24 24 23 22 22 22 23 23 22 22 22 22 22 21 22
22 22 22 22 22 22 23 24 23 24 25 25 25 26 26 26 25 24 24 24 24 25 25 25 26 26 26 26 26 26 25 24 24 24 24 24 23 23 23 23 23 23 23
21 21 22 23 23 23 24 25 25 25 26 26 27 27 27 27 26 25 24 24 25 26 26 27 27 27 28 27 27 26 25 25 25 25 25 26 25 25 25 24 24 23 24
22 22 23 24 24 25 25 26 27 27 27 27 27 26 26 27 27 26 26 26 26 26 26 26 26 28 29 28 27 27 26 26 26 26 27 27 27 26 26 26 26 25 26
23 23 24 24 25 26 26 26 27 28 29 29 28 27 27 27 27 27 27 27 26 26 26 27 27 28 28 29 28 28 28 28 27 27 27 27 27 27 27 26 26 26 26
24 24 24 24 25 26 27 28 28 28 28 28 28 28 28 27 28 28 28 27 27 27 27 28 28 28 29 29 29 29 28 28 28 27 27 27 27 27 27 28 27 27 27
25 25 25 25 26 26 27 28 28 28 27 28 29 29 28 28 28 28 28 28 28 28 28 28 28 29 30 31 30 30 29 28 27 27 27 28 28 28 28 28 28 28 28
25 25 25 26 26 27 27 28 28 28 27 28 28 27 27 27 28 29 29 29 28 29 28 29 29 30 31 31 30 30 29 28 28 28 27 28 27 28 28 29 29 28 29
24 25 26 27 27 27 28 28 28 27 27 27 27 27 27 28 28 29 30 30 30 29 28 28 29 28 28 28 29 29 29 28 28 28 28 28 28 28 28 29 29 29 29
26 26 27 27 27 27 29 28 28 28 28 27 27 26 27 28 28 27 27 28 28 28 28 28 27 27 28 27 28 29 29 28 28 29 30 29 29 29 29 29 29 29 29
27 27 27 27 27 28 28 28 28 28 28 27 26 27 27 27 27 26 27 27 27 27 28 27 26 27 27 27 27 28 28 28 28 29 28 29 29 30 30 30 30 30 29
27 27 28 28 28 28 28 29 28 28 28 27 26 27 26 26 26 26 27 27 27 26 26 25 25 26 26 27 27 27 27 27 28 29 29 29 31 31 30 30 30 29 29

GEFSSE_500_meanwind_174.txt.gz
Wind_Speed
7 7 8 8 8 9 9 9 10 9 9 9 9 8 7 7 6 6 6 6 6 6 6 6 6 6 6 6 6 6 6 6 6 5 6 6 6 6 6 6 6 7 7
9 9 10 10 10 10 10 11 11 11 11 11 10 9 9 8 7 7 7 7 7 7 7 7 7 7 7 7 7 6 6 6 6 6 6 7 7 6 6 6 6 7 7
10 11 12 12 12 12 12 12 12 12 12 12 11 10 10 9 9 9 8 8 8 8 8 8 8 8 8 8 7 7 7 7 7 7 7 7 7 7 6 6 7 7 8
11 12 14 14 14 13 13 13 13 13 13 13 12 11 10 10 10 10 9 9 10 10 10 10 9 9 9 9 9 9 8 8 8 8 8 7 7 8 7 7 8 8 9
13 15 15 15 15 15 15 15 14 14 14 13 13 12 11 11 11 11 11 11 11 11 11 11 11 10 10 10 10 10 10 9 9 9 9 8 9 9 9 9 9 10 10
14 16 17 16 16 15 16 16 16 15 15 14 14 14 13 13 13 12 12 12 12 12 12 12 12 11 11 11 11 11 11 11 10 10 10 10 10 11 11 11 11 12 12
16 17 17 17 16 16 16 17 17 17 16 16 16 15 15 15 14 14 14 14 14 13 13 13 13 13 12 12 12 12 12 12 12 11 11 12 12 12 12 12 13 13 13
18 18 17 17 16 16 17 17 16 16 17 17 17 17 17 16 16 16 16 16 15 15 15 15 14 14 14 14 14 14 13 14 14 14 13 13 13 14 14 14 14 14 14
19 19 18 17 17 17 17 17 18 18 18 18 18 18 18 18 18 17 17 17 17 17 16 16 16 16 15 15 15 15 15 15 15 16 15 15 14 14 15 15 14 15 15
20 19 18 17 18 18 18 18 19 19 19 19 19 19 19 19 19 19 18 18 19 19 18 18 18 17 16 17 16 16 16 16 16 17 17 17 16 16 16 16 16 16 16
20 19 19 19 19 19 19 19 20 20 20 20 21 21 20 20 20 20 19 19 20 20 20 20 20 19 19 18 18 18 18 18 18 18 18 18 18 18 17 17 17 17 18
20 20 20 20 20 20 20 20 21 21 22 22 22 22 22 22 21 21 21 21 21 22 22 22 22 21 21 20 19 19 19 19 19 19 19 19 19 19 19 19 19 19 19
20 20 20 21 21 21 21 21 22 22 23 23 24 23 23 23 23 23 23 23 23 24 24 24 23 22 21 21 21 20 20 21 21 21 20 20 21 21 21 21 21 20 20
21 21 22 22 22 22 22 22 23 23 23 23 23 24 24 24 24 24 24 24 24 25 25 25 24 23 23 22 22 22 22 22 23 23 23 22 22 23 23 23 22 22 22
23 23 23 23 23 22 22 23 23 23 24 24 24 24 25 26 26 26 26 26 26 26 26 25 25 24 24 24 24 24 24 24 24 24 24 24 23 22 23 22 23 23 23
23 23 23 24 23 23 23 23 24 24 25 25 26 26 26 26 26 26 27 27 27 26 26 26 26 26 26 26 26 25 25 25 25 24 24 25 24 24 24 24 24 24 24
23 24 24 24 24 24 24 25 25 25 25 26 27 27 27 27 27 27 27 27 27 27 28 27 27 27 27 27 26 26 26 26 26 26 26 26 25 25 25 26 26 25 25
24 24 25 25 25 26 26 26 27 27 27 27 27 27 28 29 29 29 29 28 28 28 29 29 29 29 28 28 27 27 27 27 27 27 27 26 26 26 26 27 27 26 26
25 25 26 26 26 27 27 27 27 28 28 27 28 29 29 30 30 30 30 30 30 30 30 30 30 29 28 28 28 28 28 28 28 28 28 27 27 27 27 27 28 28 28
25 25 26 27 27 27 27 28 27 28 28 28 29 29 29 30 30 30 30 30 30 31 31 31 31 30 29 29 29 29 29 30 29 28 28 28 28 28 28 28 28 28 29
26 26 27 27 27 27 27 28 28 29 28 29 30 29 29 29 30 29 30 30 30 30 31 32 32 31 30 30 30 30 29 29 29 29 28 29 29 29 28 28 28 29 29
26 26 26 27 27 28 28 29 29 29 29 30 30 29 30 29 28 29 29 30 31 30 31 31 31 31 31 31 31 31 31 29 28 29 29 29 29 29 28 28 28 28 29
26 26 26 27 27 28 29 29 30 29 30 29 30 31 29 29 28 29 29 30 30 30 30 30 30 31 30 31 31 31 30 29 29 29 30 30 30 30 29 29 29 28 29
26 27 27 27 27 28 29 30 31 30 29 29 30 30 29 28 28 28 28 29 29 30 30 30 30 30 30 30 30 30 30 30 29 29 29 30 30 30 30 29 29 29 30
25 26 26 27 28 29 29 29 30 29 29 28 29 28 28 27 27 27 27 28 28 29 29 29 29 29 30 30 30 30 30 30 29 29 29 30 30 30 30 30 30 30 30
26 27 27 28 28 29 29 29 29 28 28 27 27 26 26 26 26 26 26 27 27 28 28 28 29 29 30 30 29 29 29 29 29 29 28 29 29 29 29 30 30 30 30

GEFSSE_500_meanwind_180.txt.gz
Wind_Speed
10 10 10 10 10 11 11 11 11 11 11 11 11 11 11 11 10 10 10 10 9 9 8 8 8 8 8 8 7 7 7 6 6 7 7 7 7 7 8 7 8 8 8
11 11 11 12 12 13 13 13 13 13 13 13 12 12 12 12 11 11 11 11 10 10 10 10 9 9 9 8 8 8 8 8 8 8 8 8 8 8 8 8 9 9 9
12 12 13 13 13 14 15 15 15 14 14 14 14 13 13 13 12 12 12 12 11 11 11 11 11 10 10 10 10 9 9 9 9 9 9 9 9 9 9 9 9 9 9
13 13 14 14 15 15 16 16 16 16 16 16 15 15 14 14 13 13 13 13 13 12 12 12 12 11 11 11 10 10 10 10 11 11 10 10 9 10 10 10 9 9 9
14 14 15 15 16 16 17 17 17 17 18 18 17 17 16 15 15 15 15 14 14 14 13 13 13 13 12 12 12 12 12 11 12 12 12 11 10 10 11 11 11 10 11
15 14 16 16 16 17 17 18 18 18 18 19 19 18 18 17 16 16 16 16 15 15 15 14 14 14 14 14 13 13 13 13 13 13 13 12 12 11 12 12 12 12 12
16 16 17 17 17 18 18 19 19 19 19 19 19 19 19 19 18 18 18 17 17 16 16 16 15 15 15 15 15 15 14 14 14 14 14 13 13 13 13 14 14 14 13
18 18 18 18 19 19 19 20 20 20 20 20 20 20 20 19 19 19 19 19 19 18 18 17 17 17 17 16 16 16 16 16 16 16 15 14 15 15 15 15 15 15 15
19 19 19 19 20 20 20 21 21 21 21 21 21 22 22 21 20 20 20 21 20 20 19 19 18 18 18 18 17 17 17 17 17 17 17 16 16 16 16 16 16 16 16
20 20 20 20 20 21 21 22 22 22 22 22 22 22 22 22 22 21 21 21 21 21 21 20 20 19 19 19 18 18 19 19 19 19 18 17 17 17 18 18 18 18 18
21 21 21 21 22 22 22 23 23 23 23 23 23 23 23 23 23 23 22 22 23 23 22 22 21 21 20 20 20 20 20 21 21 21 20 19 19 18 19 19 19 19 20
21 22 22 22 23 24 24 24 24 24 23 23 23 23 24 24 24 24 24 23 23 23 23 23 22 23 22 22 21 21 21 21 22 22 21 20 21 20 19 19 19 19 20
22 23 23 23 24 24 25 24 25 25 25 24 24 24 24 25 24 24 24 24 23 23 22 23 23 23 23 23 23 22 22 23 22 23 22 22 22 22 21 20 20 20 21
23 24 24 24 25 25 25 26 26 26 26 26 26 25 26 25 25 25 24 24 24 24 24 24 23 24 24 24 24 23 24 24 24 23 23 23 23 23 23 22 22 22 22
24 24 25 26 26 27 26 27 27 27 27 27 28 26 26 27 26 25 25 24 25 25 26 25 24 24 24 24 25 25 25 25 25 24 24 24 24 24 24 24 24 23 23
25 25 26 27 27 28 28 28 28 28 28 27 27 27 28 27 27 27 26 26 26 27 27 26 26 25 25 26 26 26 26 26 26 27 25 25 25 25 26 25 24 24 24
25 26 27 28 28 28 28 28 28 28 28 27 28 29 29 29 28 28 28 28 28 28 28 28 27 27 27 26 26 26 26 26 27 27 26 25 26 26 26 26 25 25 25
27 27 28 29 29 28 28 28 28 28 29 29 29 29 29 29 29 29 28 28 29 29 29 28 27 28 28 27 27 28 27 27 26 26 27 27 26 26 26 26 26 26 26
28 28 28 29 29 29 28 28 28 29 29 30 30 29 29 30 30 29 29 29 29 29 28 28 27 28 29 28 28 28 27 27 26 27 28 28 27 27 27 26 26 26 26
28 28 28 28 29 29 29 28 28 29 30 30 31 30 31 31 30 30 30 30 29 29 29 28 28 28 28 28 29 28 27 27 27 26 27 27 27 28 27 27 27 27 27
28 29 28 29 29 29 29 29 28 28 30 30 31 30 31 32 31 30 30 30 29 29 29 29 29 29 28 28 29 29 29 28 28 28 28 27 27 27 27 27 27 27 28
29 29 29 29 30 30 30 29 28 29 30 31 31 31 31 31 31 31 31 30 29 29 28 29 29 29 29 29 30 30 29 28 28 29 29 29 29 28 28 28 27 28 28
29 29 29 29 30 30 30 30 30 30 31 31 30 30 30 31 31 30 30 29 28 28 28 29 29 29 29 29 30 30 30 29 29 29 30 30 29 28 28 28 28 28 28
30 30 29 30 30 30 30 30 30 30 30 30 30 30 30 30 30 29 29 28 28 28 28 28 29 29 29 28 29 29 29 29 29 29 29 29 29 29 28 28 29 29 29
30 30 30 29 29 29 30 30 29 29 29 30 29 29 28 28 27 27 26 27 27 26 27 27 28 28 27 27 27 28 28 28 28 28 27 28 28 28 27 28 28 28 28
31 30 30 29 29 29 29 29 28 28 29 28 28 27 26 26 26 25 25 25 25 25 25 26 27 26 26 26 26 27 27 27 27 26 26 26 27 26 27 27 27 27 28

GEFSSE_500_meanwind_186.txt.gz
Wind_Speed
11 11 11 11 11 10 10 10 10 11 11 12 12 13 13 13 13 13 13 13 14 13 13 13 12 12 11 11 11 10 10 10 10 10 10 10 10 10 10 9 9 9 9
11 12 12 11 11 11 10 11 11 12 12 13 13 14 14 14 14 14 14 14 15 14 14 13 13 13 13 13 12 12 11 11 11 11 11 11 11 11 11 10 10 10 10
12 12 12 12 12 12 11 12 12 12 13 14 14 15 15 15 15 15 15 15 16 16 15 14 14 14 14 14 13 13 12 12 12 12 12 12 12 12 12 11 10 10 10
12 13 13 12 13 13 13 13 13 13 13 14 15 15 15 15 16 16 16 16 16 16 16 16 16 15 15 15 15 14 14 13 13 13 13 12 12 12 12 11 11 11 10
13 13 13 13 13 13 13 13 14 14 14 14 15 15 16 16 17 17 17 17 17 17 17 17 17 16 16 16 16 16 15 15 14 14 14 13 13 12 12 12 12 12 11
14 14 14 14 14 13 14 14 14 14 15 15 15 16 16 17 17 17 18 18 18 18 18 18 17 17 17 17 17 17 16 16 15 15 15 15 15 14 13 13 13 13 13
15 15 15 15 15 14 15 15 15 15 15 16 17 17 17 17 17 18 18 18 19 19 19 18 18 18 18 18 18 18 17 17 16 16 16 15 15 15 14 14 14 15 14
15 15 15 16 16 16 16 16 16 17 17 17 18 18 18 18 18 19 19 19 20 20 20 19 19 19 19 19 19 19 19 18 17 17 17 16 16 16 16 16 16 16 16
15 16 16 17 17 17 17 17 18 18 18 18 19 19 20 19 19 19 20 20 21 22 21 20 20 20 20 20 19 20 20 19 18 18 18 17 17 17 17 17 17 17 17
17 17 17 18 18 18 18 18 19 19 19 19 20 20 20 20 20 20 21 21 21 22 22 22 22 21 21 20 20 20 20 19 19 19 19 19 19 18 18 18 18 18 18
18 17 17 18 19 18 18 19 19 19 20 20 20 20 20 20 20 21 21 21 21 21 21 22 22 22 21 21 21 21 21 21 21 20 20 20 20 20 19 19 19 19 19
19 19 19 19 20 20 19 20 20 19 20 21 21 21 21 21 20 20 20 20 20 20 20 21 21 22 21 21 21 21 22 22 21 21 21 21 21 22 22 21 20 20 20
20 20 20 20 20 21 22 22 22 22 21 21 21 22 21 21 21 20 21 20 20 20 20 21 21 21 22 22 22 22 23 23 23 22 22 23 22 23 22 22 22 21 21
22 22 22 21 22 22 22 23 23 24 23 22 22 22 22 22 22 22 22 22 22 22 21 21 22 22 23 23 23 23 23 24 24 23 23 24 24 24 24 23 22 22 22
23 23 23 24 24 24 24 24 24 25 24 23 22 22 22 22 22 22 22 22 22 22 22 22 22 22 21 21 22 24 24 24 25 25 25 25 25 25 25 24 24 24 24
24 24 25 25 25 25 25 25 25 25 25 24 24 23 23 23 23 23 23 24 23 23 23 23 23 23 22 22 22 24 25 25 25 25 25 25 26 26 25 25 25 25 25
25 26 26 26 26 26 26 26 26 25 25 24 24 25 25 24 23 23 24 23 23 24 24 23 23 23 23 23 23 24 25 26 26 26 25 25 26 26 26 26 26 26 26
26 27 27 27 27 27 27 27 27 25 25 25 25 25 25 25 24 24 24 24 24 24 24 24 24 24 24 24 23 24 25 26 27 27 27 26 26 26 26 26 26 26 27
27 28 28 27 27 27 28 28 28 26 27 27 26 26 26 26 25 24 24 24 24 24 23 24 24 24 24 24 24 24 25 26 26 27 27 26 26 26 26 27 26 27 27
28 29 30 30 29 28 27 28 28 27 27 27 27 27 26 25 25 25 24 24 24 24 24 23 23 24 24 25 25 25 25 25 26 26 26 27 26 26 26 27 27 27 28
29 30 31 31 30 29 29 28 28 27 26 26 26 27 26 26 25 25 25 25 25 25 25 25 25 24 24 25 25 25 25 25 26 26 26 26 26 27 27 27 28 28 28
30 31 31 31 30 29 29 29 28 27 27 27 27 26 26 25 25 26 25 25 26 25 25 25 25 25 25 24 24 25 25 26 26 26 26 26 27 28 28 28 28 29 29
30 30 31 31 30 30 29 29 29 28 28 27 26 26 26 26 25 25 25 25 25 25 24 25 25 25 25 24 24 25 25 25 25 25 25 26 27 28 28 29 29 29 29
30 30 30 30 30 30 29 28 28 28 27 27 26 25 25 24 25 25 25 24 25 25 25 25 25 24 24 23 24 25 25 24 25 25 25 26 26 27 28 28 28 29 29
30 31 31 30 29 29 29 28 27 26 26 26 25 25 24 24 23 24 24 23 24 24 24 24 24 23 23 23 23 24 24 24 24 25 25 25 25 26 27 27 28 29 29
30 31 31 31 31 30 29 27 26 26 25 25 24 23 23 23 23 23 23 23 22 22 23 23 23 22 23 23 23 23 24 24 23 23 24 24 25 25 26 27 28 28 29

GEFSSE_500_meanwind_192.txt.gz
Wind_Speed
11 11 11 11 11 11 11 10 10 10 10 10 10 10 11 11 12 12 12 12 12 12 13 13 13 13 12 12 12 11 11 11 10 10 10 11 11 11 11 10 11 10 11
11 11 12 12 12 11 12 12 11 11 11 11 11 11 11 12 12 13 13 13 13 13 13 14 14 14 13 13 13 12 12 11 11 11 11 11 11 11 12 12 11 11 11
14 13 13 13 12 12 13 13 12 12 12 11 11 12 12 13 13 14 14 14 14 15 15 14 15 15 14 14 14 14 13 13 12 12 12 12 12 12 12 13 13 13 13
16 14 13 13 13 13 13 14 14 13 13 13 12 13 13 14 14 14 15 15 16 16 16 16 16 16 15 15 15 15 14 14 14 14 13 13 13 13 13 13 14 14 13
16 15 14 14 14 14 14 14 14 14 13 13 13 14 14 15 15 15 16 17 17 17 17 17 17 17 17 16 16 16 15 15 15 15 15 15 14 14 14 14 14 14 14
16 14 14 15 15 15 15 15 15 15 14 14 14 15 15 15 15 16 16 17 17 18 18 18 18 18 18 18 18 17 17 16 16 16 16 16 16 15 15 15 15 14 14
17 16 16 16 16 16 16 15 16 16 16 16 15 15 15 16 16 17 18 18 18 19 19 19 19 19 19 19 18 18 18 18 17 17 17 17 16 17 16 16 16 16 16
18 18 17 17 16 16 16 16 16 16 16 16 16 16 16 17 17 18 18 19 19 20 21 20 19 19 19 19 19 19 19 19 19 18 18 18 18 17 17 17 17 16 16
18 18 18 17 17 17 18 17 17 17 17 18 18 18 18 18 18 18 18 19 19 20 20 20 19 20 19 19 19 20 20 20 20 19 19 19 18 18 18 17 17 17 17
19 18 18 18 18 18 19 19 18 18 18 18 19 19 20 19 19 19 19 20 20 19 20 20 20 21 20 20 20 20 20 21 21 20 20 19 19 19 19 19 18 18 18
19 19 19 19 18 19 19 19 19 19 19 19 20 21 22 21 20 20 20 20 21 21 21 21 21 22 21 21 21 21 21 21 22 22 22 21 20 20 20 20 20 20 19
19 19 20 19 19 19 19 20 20 21 20 20 22 22 23 22 21 21 21 21 21 22 22 22 22 22 22 22 22 23 22 22 22 23 23 22 22 22 21 21 21 21 21
20 20 20 21 21 21 21 21 21 22 22 22 22 23 23 22 22 21 21 22 22 23 23 23 23 23 23 24 24 24 24 23 23 24 24 24 23 23 23 23 23 23 22
21 21 22 22 22 22 23 23 23 23 23 23 23 23 23 23 23 22 22 23 23 23 23 23 23 23 23 23 24 24 25 25 25 25 25 24 24 24 24 24 24 24 24
23 23 23 22 23 23 24 24 24 24 24 23 23 23 23 24 23 23 22 23 23 23 23 23 24 24 23 23 24 24 26 26 26 25 25 25 25 25 25 25 25 25 25
24 24 24 23 23 24 24 24 25 25 25 25 24 23 24 24 23 23 23 24 24 23 23 24 24 23 24 24 24 24 26 26 27 26 26 26 25 26 26 26 26 25 26
26 25 25 24 25 25 26 26 26 25 25 26 26 25 24 24 25 24 25 25 25 25 25 24 23 23 23 24 25 24 25 26 27 26 27 27 26 26 26 26 27 27 27
27 27 26 26 27 26 27 28 27 27 26 27 27 27 26 26 26 25 26 25 25 26 25 24 24 24 24 24 24 24 24 24 25 25 26 26 26 26 26 27 27 27 28
28 27 27 27 27 28 28 27 27 27 27 27 27 28 28 27 27 26 26 26 25 26 25 24 24 24 25 25 25 25 25 24 24 25 26 26 26 27 27 27 28 28 28
27 27 28 29 29 28 28 29 28 28 28 28 28 28 28 27 26 25 26 25 25 25 24 24 24 24 25 25 25 25 25 25 25 26 26 26 27 27 27 27 28 29 30
27 28 28 28 29 30 29 28 28 29 28 28 28 28 28 27 27 26 25 26 25 25 24 25 24 25 25 25 26 26 25 25 25 25 26 27 28 28 28 28 28 29 30
29 29 29 29 30 29 28 28 28 29 29 28 28 28 28 27 27 26 26 26 25 24 24 25 25 25 25 25 26 26 25 26 26 26 27 27 28 29 29 29 30 29 30
29 29 29 29 29 29 28 28 28 30 30 30 30 29 27 27 26 26 26 25 24 24 24 25 25 26 26 26 26 26 25 25 26 26 27 27 28 29 29 30 29 29 30
29 29 29 29 29 29 29 30 29 29 29 29 28 27 27 27 26 24 24 24 24 24 24 24 24 25 26 25 26 26 26 26 27 26 27 27 28 28 29 29 29 29 30
29 29 29 29 28 29 29 29 29 29 28 27 27 27 27 26 25 24 23 23 24 24 24 24 24 25 24 24 24 25 26 27 27 26 26 27 27 28 28 29 29 30 30
29 29 29 29 29 29 29 28 28 28 27 26 26 26 25 24 24 23 23 23 23 23 23 23 24 24 24 24 24 25 26 26 26 27 27 27 27 28 29 29 30 31 31

GEFSSE_500_meanwind_198.txt.gz
Wind_Speed
8 9 9 8 8 7 7 7 8 8 8 8 8 8 8 8 8 8 8 8 8 7 8 8 8 8 8 8 8 8 8 9 9 10 10 10 10 11 12 12 13 13 13
9 10 9 9 9 8 8 8 9 9 9 9 9 9 9 9 9 9 9 9 9 9 9 9 9 9 9 10 10 10 10 10 11 11 12 12 12 12 13 14 14 14 14
10 11 10 10 9 9 9 9 10 10 10 10 10 10 10 10 10 10 10 10 10 10 10 10 10 10 10 11 11 12 12 12 12 12 13 13 13 13 13 14 15 15 15
11 11 11 11 10 10 10 10 11 11 11 11 11 11 11 11 11 11 11 11 11 11 11 11 11 11 11 12 12 13 13 14 13 13 13 14 14 14 15 14 14 14 15
12 12 12 12 11 11 11 12 12 12 11 11 12 12 11 12 12 12 12 12 12 12 12 12 12 12 13 13 14 14 14 15 15 15 15 15 16 15 15 15 15 15 15
13 13 13 13 12 12 12 12 12 12 12 12 12 12 12 12 13 13 13 13 13 13 13 14 13 14 14 14 15 15 16 16 16 16 16 17 17 17 17 17 16 16 16
13 13 13 14 14 13 13 14 13 13 13 13 13 13 13 14 14 14 14 15 15 15 15 15 15 15 15 15 15 16 16 17 17 18 17 17 18 18 18 18 17 17 17
15 15 14 14 14 14 15 14 14 14 14 13 14 14 14 15 15 15 16 16 17 16 16 16 16 16 16 16 16 15 15 16 17 17 17 18 18 18 18 19 19 19 18
16 16 15 15 15 15 15 15 15 15 15 15 15 16 16 16 16 16 16 17 17 17 18 17 17 18 17 17 17 17 16 17 17 18 18 18 18 19 19 19 19 20 20
17 17 16 16 16 16 15 16 16 16 16 16 16 17 17 17 18 18 18 18 18 19 19 19 18 18 18 18 18 18 18 18 18 18 19 19 19 19 20 19 20 20 21
18 19 18 17 17 16 16 17 17 17 18 18 17 18 18 19 19 19 19 19 19 20 20 20 20 19 19 19 19 20 20 19 20 19 19 20 20 20 20 20 20 21 21
19 19 19 18 18 18 18 19 19 19 19 19 19 20 20 20 20 20 20 19 20 20 20 20 21 21 20 20 20 20 21 21 20 20 20 20 21 21 21 22 22 22 22
20 20 20 19 20 20 20 20 20 21 21 21 21 21 21 22 22 21 21 20 20 20 20 20 21 21 21 21 21 21 21 22 21 21 22 22 22 22 22 23 23 23 23
22 22 21 20 20 21 21 21 21 22 22 22 21 22 22 22 22 22 22 21 21 21 21 21 21 22 22 22 21 21 22 21 22 23 23 23 23 23 23 24 24 24 24
24 23 23 23 22 22 22 22 23 23 23 23 23 23 23 23 24 23 22 22 23 23 22 22 23 23 23 23 22 22 22 22 23 23 23 23 23 24 24 24 25 24 24
25 24 23 23 24 24 24 24 24 25 24 24 24 24 24 25 25 24 24 24 23 24 24 23 24 24 23 23 23 23 23 24 23 24 24 24 24 25 25 25 25 25 25
24 24 24 25 26 26 26 25 25 25 24 24 25 25 26 26 26 25 25 24 24 24 24 25 24 24 23 23 23 24 24 24 23 24 24 25 25 25 25 26 26 26 26
25 25 25 25 27 27 27 27 28 28 27 27 26 25 26 26 26 26 25 24 25 24 25 25 24 25 24 24 24 24 24 24 24 24 24 25 25 25 25 25 26 27 27
25 26 26 26 27 28 28 29 29 28 28 28 27 27 26 27 26 27 26 25 25 25 26 26 26 25 24 24 24 24 25 25 25 24 25 24 24 25 26 26 26 27 27
26 26 26 26 27 28 28 28 27 27 27 27 27 26 27 27 27 27 27 26 26 26 26 27 26 26 25 25 25 25 25 26 25 25 25 25 24 25 26 26 26 27 28
27 27 27 27 28 28 28 27 27 27 27 27 27 26 26 26 27 28 27 27 26 26 26 26 26 26 26 26 25 25 25 26 26 26 26 25 25 25 26 26 26 27 27
28 28 28 28 28 29 28 27 26 26 26 27 26 26 26 27 28 27 27 27 27 27 26 25 25 25 25 26 26 25 25 26 26 26 26 26 25 26 26 27 27 27 28
28 29 29 29 30 30 29 28 27 27 27 26 26 26 26 27 27 28 26 26 26 26 26 25 25 25 25 25 26 26 26 27 27 28 28 27 27 27 27 28 28 28 29
28 29 29 29 28 28 28 28 28 27 27 27 27 27 26 26 27 26 26 26 25 25 25 25 25 25 24 25 26 27 28 28 28 28 28 28 28 28 28 28 29 29 30
28 28 28 28 28 27 27 28 27 27 27 27 27 27 26 26 26 25 24 24 25 25 25 25 25 25 25 25 26 27 27 28 29 28 28 27 28 28 28 29 29 30 31
28 28 28 28 27 27 27 27 27 27 26 26 25 25 25 25 24 23 23 23 24 25 25 25 24 25 25 26 26 27 27 28 28 28 27 27 28 28 29 29 30 31 31

GEFSSE_500_meanwind_204.txt.gz
Wind_Speed
8 9 9 8 8 8 9 9 9 9 10 10 10 10 10 10 10 11 11 10 9 9 9 8 9 9 9 9 9 9 9 9 9 10 10 11 11 12 13 13 12 12 12
9 10 10 9 9 9 10 10 11 11 11 11 11 11 11 11 11 12 11 10 10 10 10 10 10 10 10 10 10 10 10 10 10 11 12 12 12 13 13 14 14 14 14
11 11 11 10 11 10 11 11 11 12 12 12 12 12 12 12 12 12 12 11 11 11 11 11 11 11 11 11 11 11 12 12 12 13 13 13 13 14 14 15 15 15 15
12 12 12 11 12 12 12 12 12 12 13 13 13 13 12 13 13 13 13 12 12 12 12 12 12 13 12 13 13 13 13 13 14 14 14 14 14 15 15 16 16 16 16
14 13 13 13 13 13 13 13 13 13 13 14 14 13 13 13 14 14 14 13 13 13 14 14 14 14 13 13 14 14 14 14 15 15 14 15 15 16 16 16 17 17 17
15 15 15 14 14 14 14 14 14 14 14 14 15 15 14 15 15 15 15 14 15 15 15 15 15 15 15 15 15 15 15 15 16 16 16 16 16 17 17 17 17 17 17
17 16 15 15 15 15 15 15 15 16 15 16 16 16 15 16 16 16 16 15 15 16 16 16 16 16 16 16 16 16 16 16 16 17 16 16 16 17 18 18 18 18 18
18 18 16 16 16 16 16 16 17 17 17 17 17 16 16 16 16 16 16 16 16 16 17 17 18 18 18 17 17 17 17 17 17 17 16 17 17 17 19 19 19 19 18
18 18 18 17 17 17 17 17 18 19 18 17 17 17 17 18 17 17 17 17 17 17 17 18 18 19 18 18 17 17 18 18 18 18 18 17 17 18 19 20 20 19 19
19 19 19 19 19 18 18 18 19 19 18 18 18 18 18 19 19 18 18 19 19 18 18 18 18 19 19 19 19 19 19 20 19 19 19 18 18 18 19 19 20 20 20
19 20 20 21 21 20 20 20 20 20 19 19 19 19 19 19 20 19 19 20 20 20 19 19 19 19 20 20 20 20 20 21 20 20 20 20 19 19 19 19 20 20 19
20 21 21 21 21 21 21 22 21 21 21 21 21 20 21 21 21 21 21 21 21 21 20 20 20 20 20 21 20 20 20 21 21 21 21 21 20 20 20 20 20 21 20
21 21 22 22 22 22 23 23 23 23 23 22 22 22 22 23 23 23 22 22 22 22 22 22 21 22 21 22 21 21 21 21 21 21 21 22 22 22 22 22 21 21 21
22 22 23 24 24 25 25 24 25 25 25 23 23 24 24 23 24 24 24 23 23 23 23 22 22 21 22 22 22 22 21 20 21 21 22 22 23 23 23 22 22 22 22
23 23 24 24 24 26 26 25 27 26 26 25 25 25 25 25 24 25 25 25 25 24 24 23 22 22 22 22 23 23 22 20 20 21 22 22 22 22 23 23 22 22 23
24 24 25 25 26 26 26 26 27 26 26 27 26 26 27 27 26 26 26 25 25 26 25 23 23 23 23 23 22 23 23 21 20 21 21 21 22 22 23 24 24 23 24
25 26 26 27 26 26 25 26 27 26 27 27 27 27 27 27 27 27 26 26 26 26 25 24 24 23 23 23 22 22 22 22 22 22 21 21 22 22 22 23 24 24 24
26 27 27 27 27 27 27 26 27 27 27 27 28 27 26 27 28 27 27 25 25 25 25 24 24 23 23 23 23 22 22 23 23 22 23 22 22 23 23 23 24 24 24
27 27 27 28 28 28 28 28 28 27 28 27 27 27 27 26 26 26 25 24 24 25 25 24 23 23 23 23 23 23 23 23 23 22 22 23 23 23 23 23 24 24 25
28 28 28 28 29 29 29 29 29 29 28 27 27 26 26 26 26 24 24 24 24 24 24 24 24 23 23 23 24 24 24 24 23 23 23 23 24 25 24 24 24 25 26
28 29 29 29 30 30 30 30 30 29 28 27 26 25 26 26 26 25 25 24 24 24 24 24 24 24 24 24 24 24 25 24 24 24 24 24 24 25 24 25 25 26 26
28 29 29 29 29 30 31 31 31 30 28 27 26 26 25 25 25 25 26 25 24 23 23 24 24 24 25 24 24 24 24 24 25 25 25 25 25 25 25 25 25 26 27
29 29 29 29 30 31 31 31 30 29 28 28 27 27 26 25 26 26 26 24 22 22 22 24 24 24 25 25 24 24 24 24 24 25 26 26 26 25 25 27 27 27 28
29 29 29 29 30 31 31 30 30 29 28 28 27 26 26 26 26 26 25 24 23 22 22 23 24 24 25 26 25 24 24 25 25 25 26 26 26 26 26 26 27 28 29
29 30 30 29 29 30 30 30 30 29 28 27 26 26 26 25 26 25 24 23 23 23 23 23 24 25 25 25 25 25 26 25 26 27 26 27 27 27 27 27 28 28 29
30 30 30 30 30 30 30 29 29 28 27 26 25 25 25 25 25 24 24 24 24 24 24 24 24 24 24 25 25 25 26 26 27 27 26 26 26 27 27 27 28 28 28

GEFSSE_500_meanwind_210.txt.gz
Wind_Speed
10 10 9 8 8 9 9 9 10 10 10 11 11 12 12 12 12 12 12 12 12 11 10 11 11 11 11 11 11 11 12 12 12 12 12 12 12 12 12 12 12 13 12
10 10 10 10 9 9 10 10 11 11 11 11 12 13 13 13 13 13 13 12 12 11 11 11 12 12 12 12 12 12 13 13 13 13 13 13 13 14 14 14 14 14 14
12 11 11 10 10 10 11 11 11 12 12 12 12 13 13 13 13 14 13 13 13 13 13 12 13 13 13 13 13 13 13 14 14 14 14 14 14 14 15 15 15 15 15
13 12 11 11 12 12 12 12 12 12 12 12 13 13 13 14 14 14 14 13 14 14 13 13 14 14 14 14 14 14 14 14 14 14 15 15 15 15 15 16 16 16 16
13 13 12 12 12 12 12 12 13 13 13 13 13 14 14 14 14 15 14 14 14 14 14 14 14 15 15 15 16 15 15 15 15 15 15 15 15 15 16 17 16 17 17
15 15 14 13 13 13 14 14 14 14 14 14 14 14 15 15 15 15 15 15 15 14 14 15 15 16 16 16 16 16 16 16 16 16 17 17 17 16 17 17 18 18 18
16 16 15 14 14 15 15 15 15 15 15 15 15 15 15 15 16 16 16 16 16 15 15 16 16 16 17 17 17 17 17 17 16 17 17 18 18 18 18 18 19 19 19
17 16 16 15 15 15 15 15 15 15 16 16 16 16 16 16 17 17 17 17 17 17 16 17 17 17 18 18 18 18 18 17 17 17 18 18 18 19 19 19 19 20 20
17 17 17 16 16 16 16 16 16 16 16 16 17 17 17 17 18 18 18 17 18 18 17 17 18 18 18 18 18 18 18 18 18 18 18 18 19 20 20 20 20 20 20
18 17 17 17 17 17 17 17 17 17 17 17 18 18 18 18 18 19 18 18 18 18 18 18 18 18 18 18 19 19 18 19 19 19 19 19 19 19 20 21 21 21 21
18 18 17 17 18 18 19 18 18 19 18 19 19 18 19 20 20 20 19 19 18 18 18 19 19 19 19 19 19 19 19 19 19 18 19 19 20 20 20 21 22 22 22
19 18 19 19 19 19 20 20 20 20 21 21 20 20 20 21 21 21 21 20 19 19 19 20 20 20 19 19 19 19 19 19 20 19 20 20 20 20 20 21 22 22 22
20 19 20 19 19 20 21 20 20 21 22 22 22 21 21 21 22 22 22 21 21 21 21 21 21 21 20 20 20 20 20 20 20 20 20 20 20 21 22 22 22 22 22
21 20 20 20 21 21 21 21 21 22 22 22 23 23 22 22 22 23 23 23 23 23 22 22 22 22 21 21 20 20 20 20 21 21 21 21 21 21 21 21 22 22 22
20 20 20 21 22 22 22 21 21 22 23 23 23 24 23 23 24 24 24 24 23 23 23 23 22 22 22 22 22 21 21 21 21 21 22 22 22 22 21 21 22 21 22
20 21 21 22 22 23 23 23 23 23 24 24 24 24 24 24 25 25 25 25 24 23 23 22 22 21 21 22 22 22 21 21 22 21 22 22 23 23 23 22 23 23 22
22 22 22 23 24 24 24 24 24 24 25 24 24 25 25 26 25 25 25 25 24 24 24 24 23 22 21 21 21 21 22 22 22 22 22 22 22 23 23 23 23 23 23
23 23 23 24 25 25 25 25 24 24 24 23 24 25 26 26 25 26 26 24 24 24 24 24 23 22 21 21 21 21 21 21 22 22 22 22 23 23 23 23 24 24 24
24 24 23 24 25 25 25 25 25 25 25 25 26 25 25 25 25 26 24 24 24 24 23 23 22 21 21 21 21 21 21 21 21 22 22 22 23 23 23 23 23 24 25
24 23 24 25 26 26 27 26 26 26 26 27 26 25 25 26 26 25 24 23 23 23 22 22 22 22 22 21 21 21 21 22 21 22 23 23 23 23 24 24 23 23 24
25 25 25 25 26 26 27 27 27 27 27 27 27 26 25 25 23 23 23 22 22 23 22 21 21 22 22 22 22 21 22 22 22 22 22 22 23 23 23 24 24 24 24
26 27 26 26 26 27 27 27 28 28 28 27 27 26 25 24 23 23 23 22 22 22 22 21 22 22 22 22 22 22 22 22 22 22 22 23 23 23 23 24 24 25 25
27 28 28 28 28 28 29 29 29 28 27 26 26 26 25 23 23 22 22 22 23 22 22 22 22 22 22 22 22 21 21 21 22 22 23 23 23 24 24 24 24 26 26
28 29 29 30 30 30 29 29 28 27 27 26 25 25 25 24 23 23 23 22 22 21 21 22 22 22 21 21 21 22 22 22 22 22 23 23 24 24 25 25 26 27 28
30 31 31 31 31 30 29 29 28 27 26 26 26 25 24 24 23 23 23 22 22 22 22 21 21 20 21 21 21 22 23 22 22 23 23 24 24 24 25 26 27 28 29
32 33 32 31 30 30 29 28 27 26 25 25 24 24 23 23 23 23 21 21 21 21 20 20 20 21 21 21 21 22 22 22 22 22 23 24 24 25 26 26 27 28 29

GEFSSE_500_meanwind_216.txt.gz
Wind_Speed
11 10 10 10 10 10 9 8 9 9 10 10 10 10 10 10 9 9 9 9 9 9 10 10 10 10 10 10 10 10 10 10 11 11 11 11 11 11 11 12 12 12 12
12 11 11 11 10 10 10 9 10 10 10 10 10 10 10 10 10 10 10 10 10 10 10 10 10 10 10 11 11 11 11 11 12 13 12 12 12 12 13 13 13 14 14
12 12 12 12 11 11 11 10 11 11 11 11 11 10 10 10 10 10 10 11 11 11 11 11 11 11 11 11 11 11 11 12 12 13 13 13 13 14 14 14 14 14 14
13 14 13 13 13 12 11 11 11 12 12 12 11 11 11 11 11 11 11 11 12 11 11 12 12 12 12 11 12 12 12 13 13 14 14 14 14 15 14 14 14 14 14
14 15 15 14 13 12 12 12 12 13 13 13 12 12 12 12 12 13 12 12 12 12 12 12 12 12 12 12 12 13 13 13 14 14 15 15 15 15 15 15 15 15 15
15 15 15 14 13 12 12 13 13 14 14 14 14 14 14 14 14 14 14 13 13 13 13 13 13 13 13 13 13 14 14 14 15 15 16 16 16 16 16 16 16 16 16
17 16 16 15 14 13 13 13 13 14 15 15 15 15 15 15 15 15 15 15 15 15 15 15 14 14 14 13 13 14 15 15 16 16 17 17 16 17 17 17 17 17 17
18 17 17 16 15 14 13 13 14 14 15 16 16 16 17 17 16 16 16 16 16 16 16 15 15 15 15 15 15 15 15 16 16 16 16 17 17 17 17 17 18 18 18
19 18 18 17 17 16 15 15 15 15 15 16 16 17 18 18 17 17 17 17 17 17 16 16 15 16 16 16 16 15 15 16 16 16 17 17 17 17 17 18 18 18 18
19 18 18 18 17 17 16 16 16 16 16 16 17 17 18 19 18 18 18 18 18 18 17 17 16 16 17 17 16 16 16 16 17 17 17 17 18 18 18 18 18 19 20
20 18 18 18 18 18 18 18 17 17 17 18 18 19 20 20 20 20 19 19 19 19 19 19 18 18 18 17 17 17 17 17 17 17 18 18 18 19 19 19 19 19 20
20 19 18 18 18 18 19 19 19 19 19 19 19 20 20 21 21 21 20 20 20 19 19 19 19 18 18 18 19 19 18 18 18 17 18 19 19 19 20 20 20 20 21
21 20 19 19 19 18 19 19 20 20 20 20 21 21 21 22 22 22 22 22 22 21 21 21 20 20 20 20 20 20 20 19 19 19 19 19 19 19 20 21 21 21 21
22 21 20 20 20 20 20 20 21 21 22 22 22 23 23 23 23 23 23 22 22 23 23 22 22 22 21 21 21 21 21 21 20 20 20 21 21 21 21 21 22 22 22
22 22 21 21 21 22 22 21 22 22 22 22 23 23 24 24 23 23 23 23 23 23 24 24 24 23 22 22 22 22 22 21 21 21 21 21 21 21 22 22 22 22 23
22 22 23 23 22 23 23 22 22 22 22 23 24 24 24 24 24 25 25 25 24 24 25 26 25 25 24 23 23 23 22 22 21 22 21 22 22 22 23 23 23 23 23
22 21 22 22 22 22 22 22 23 23 23 24 24 24 25 26 26 25 25 25 25 25 26 26 26 26 24 24 24 24 23 23 22 22 22 22 22 23 23 24 24 25 24
22 22 22 21 22 22 22 24 24 25 25 25 25 25 25 26 26 25 25 25 25 25 25 25 26 26 25 25 25 25 25 24 23 23 23 23 23 23 24 25 26 26 25
23 23 23 23 24 24 23 24 25 26 26 26 26 26 26 26 25 25 25 24 25 26 26 25 25 25 25 25 25 25 25 25 24 24 24 24 24 24 24 25 26 27 27
23 23 23 24 25 25 24 25 26 26 26 26 26 26 26 25 25 24 24 24 24 25 26 25 25 25 25 25 25 25 25 25 25 25 25 24 24 24 24 25 25 26 26
23 24 24 25 26 27 26 26 27 27 26 25 26 25 25 25 25 24 23 23 23 23 24 24 24 24 23 24 24 23 24 24 24 24 25 25 25 24 24 24 24 24 25
24 24 26 27 27 27 28 28 28 27 26 26 25 25 25 25 25 24 24 24 24 24 23 24 24 23 24 24 23 23 23 24 24 24 24 24 25 24 24 24 24 25 25
25 26 28 29 29 29 29 29 28 27 27 26 25 25 24 25 26 25 25 25 25 24 23 23 23 24 24 23 23 23 23 24 25 24 25 24 24 25 25 25 25 25 25
26 26 28 29 30 31 30 29 28 27 26 25 25 25 25 25 25 25 25 24 23 23 23 23 24 24 24 24 23 23 23 24 25 25 25 25 25 25 25 26 25 25 26
26 27 29 30 31 31 30 29 27 26 26 25 25 24 24 25 25 25 25 24 23 22 21 22 23 24 24 24 24 24 23 24 24 25 25 25 25 25 25 26 26 26 27
27 28 29 30 30 30 29 27 26 25 24 24 24 23 23 23 24 23 24 23 22 22 21 22 23 23 24 24 24 24 23 23 23 24 24 25 25 25 26 26 27 27 28